Вернуться в каталог

MIDAS 5

STRONGBACK

АктивенВоенныеPO
NORAD 271·PAYLOAD·🇺🇸 United States

Запущен Apr 9, 1962 с Vandenberg Space Force Base

Loading…

Ближайшие Пролёты (ближайшие 24 часа)

TLE

СвежийSource: Space-Track

Эпоха: Sep 14, 2026, 14:03 UTC

1 00271U 62010A   26257.58589135  .00000006  00000-0  59560-3 0  9999
2 00271  86.6568 302.8781 0326877 279.8551  76.5601  9.41308809214082

Отслеживайте MIDAS 5 в реальном времени с AllMySat

Download on the App Store